Regional Weather Roundup
Issued by NWS Albany, NY

Home | Current Version | Previous Version | Text Only | Print | Product List | Glossary On
Versions: 1 2 3 4 5 6 7 8 9 10 11 12 13 14 15 16 17 18 19 20 21 22 23 24 25 26 27 28 29 30 31 32 33 34 35 36 37 38 39 40 41 42 43 44 45 46 47 48 49 50
000
ASUS41 KALY 250910
RWRALY

NEW YORK STATE HOURLY WEATHER ROUNDUP
NATIONAL WEATHER SERVICE ALBANY NY
500 AM EDT SAT APR 25 2015

NOTE: "FAIR" INDICATES FEW OR NO CLOUDS BELOW 12,000 FEET WITH NO
SIGNIFICANT WEATHER AND/OR NO OBSTRUCTIONS TO VISIBILITY.

NYZ032-033-038>043-046>054-057>066-NYZ062>081-251000-
EAST


CITY           SKY/WX    TMP DP  RH WIND       PRES   REMARKS
ALBANY         PTCLDY    30  22  72 W7        29.86S WCI  23
GLENS FALLS    CLEAR     34  20  56 VRB3      29.82F
POUGHKEEPSIE   CLEAR     28  21  75 CALM      29.88R
NEWBURGH       CLEAR     30  23  74 W8        29.88F WCI  23
MONTGOMERY     CLEAR     30  21  69 SW8       29.87S WCI  22
WHITE PLAINS   CLEAR     34  21  59 W5        29.87R WCI  30
ISLIP          CLEAR     33  22  63 W9        29.87R WCI  25
NEW YORK CITY  CLEAR     39  22  50 W14       29.91R WCI  31
CENTRAL PARK   CLEAR     38  22  52 W9        29.93S WCI  31
$$

NYZ005>009-017-018-044>046-055-056-251000-
CENTRAL


CITY           SKY/WX    TMP DP  RH WIND       PRES   REMARKS
FULTON         CLEAR     28  23  81 W7        29.94R WCI  21
SYRACUSE       CLEAR     30  25  81 W9        29.93R WCI  22
ROME           CLEAR     26  22  84 W3        29.93R
ELMIRA         CLEAR     26  22  84 CALM      29.95R
BINGHAMTON     CLEAR     27  21  78 NW7       29.87S WCI  19
MONTICELLO     CLEAR     28  19  69 W7        29.87R WCI  21
$$

NYZ026>034-041>043-251000-
NORTH


CITY           SKY/WX    TMP DP  RH WIND       PRES   REMARKS
WATERTOWN      CLEAR     25  21  85 CALM      29.93S
FORT DRUM      NOT AVBL
MASSENA        CLEAR     30  21  69 W7        29.90F WCI  23
SARANAC LAKE   CLOUDY    26  19  74 VRB5      29.80S WCI  20
PLATTSBURGH    CLOUDY    35  20  54 W7        29.83S WCI  29
$$

NYZ001>004-010>016-019>021-251000-
WEST


CITY           SKY/WX    TMP DP  RH WIND       PRES   REMARKS
NIAGARA FALLS  PTCLDY    27  21  78 CALM      29.98S
BUFFALO        PTCLDY    29  23  78 CALM      29.98S
DUNKIRK        MOCLDY    29  25  85 CALM      29.99S
JAMESTOWN      CLOUDY    28  19  69 N3        29.93F
WELLSVILLE     CLEAR     27  19  72 NW6       29.91F WCI  20
ROCHESTER      CLEAR     30  23  75 SW7       29.97S WCI  23
PENN YAN       CLEAR     31  21  66 W6        29.94R WCI  25
$$

             KEY
       WCI = WIND CHILL INDEX
       VSB = VISIBILITY
       HX  = HEAT INDEX
$$


USA.gov is the U.S. government's official web portal to all federal, state and local government web resources and services.